Probability
3 6 97 100 100 100 100 97 97 94 84 87 81 90 84 77 81 84 90 97 100 100 100 100 100 81 61 68 81 94 94 90 84 84 81 81 81 77 71 74 77 16 71
6 10 100 100 100 100 100 100 100 97 94 90 94 94 87 71 61 68 68 81 90 90 94 97 97 77 39 29 39 55 68 58 42 42 48 58 58 42 39 68 94 32 52
3 23 97 100 100 100 100 100 100 100 100 97 97 97 84 65 32 35 35 35 45 61 68 77 71 48 16 6 16 26 26 19 13 29 74 39 19 35 13 10 39 39 19
0 6 74 100 100 100 100 100 100 100 97 97 97 97 90 87 48 26 13 16 16 10 23 35 39 48 35 10 6 3 3 10 10 23 39 71 19 35 35 10 6 3 0
0 0 97 100 100 100 100 100 100 100 100 100 100 100 90 81 71 32 19 10 3 0 3 6 16 32 35 32 26 16 10 13 13 23 0 29 42 77 84 58 13 13 3
0 29 94 100 100 100 100 100 100 100 100 100 97 84 84 81 71 35 29 16 3 0 0 13 10 32 39 52 58 45 48 39 39 6 0 13 35 100 94 84 84 77 45
6 61 84 100 100 100 100 100 100 100 100 100 97 84 81 81 84 61 48 26 16 10 6 32 42 45 68 74 74 81 81 81 84 42 29 42 90 100 100 97 97 94 94
26 52 74 100 100 100 100 100 100 100 100 100 97 74 71 74 81 68 58 42 35 45 42 52 58 68 74 84 90 97 100 94 26 0 13 65 100 100 100 97 97 97 97
39 52 61 97 100 100 100 100 100 100 100 100 100 87 77 71 65 68 74 65 55 61 81 74 71 74 87 97 100 100 100 100 90 0 0 32 100 100 100 97 97 100 100
52 68 35 71 87 94 97 97 100 100 100 100 100 97 94 87 87 87 97 94 90 94 97 97 94 97 100 100 100 100 100 100 68 3 3 10 100 100 100 100 100 100 100
58 77 29 45 77 77 52 84 97 100 100 100 97 97 100 100 90 97 97 100 100 97 97 100 100 100 100 100 100 100 100 97 29 13 10 55 100 100 100 100 100 100 100
77 77 65 58 58 48 23 55 68 71 97 97 100 100 100 100 100 100 100 100 100 100 100 100 100 100 100 77 100 100 97 81 58 48 39 97 100 100 100 100 100 100 100
94 87 84 81 84 61 58 71 48 39 68 87 90 100 100 100 100 100 100 100 100 100 100 100 100 94 87 87 97 100 87 87 90 81 87 100 100 100 100 100 100 100 100
94 94 90 97 100 97 81 81 81 68 84 84 90 97 100 100 100 100 100 100 100 100 100 90 94 97 97 100 100 100 97 97 97 97 100 100 100 100 100 100 100 100 100
100 100 100 100 100 100 100 100 87 90 87 87 97 94 100 100 100 100 100 100 100 100 100 100 100 100 97 100 100 100 100 100 97 97 100 100 100 100 100 100 100 100 100
100 100 100 100 100 100 100 100 100 97 100 94 100 100 100 100 100 100 100 100 97 97 97 97 97 97 100 100 100 100 100 100 100 100 100 100 100 100 100 100 100 100 100
100 100 100 100 100 100 100 100 100 97 94 100 100 100 97 97 97 97 97 97 97 97 97 90 90 97 94 97 97 94 100 100 100 100 100 100 100 100 100 100 100 100 100
100 100 100 100 100 100 100 100 100 100 100 100 100 100 97 97 97 97 97 97 97 97 94 94 94 97 84 81 81 81 81 94 100 100 97 97 100 100 100 100 100 100 100
100 100 100 100 100 100 100 100 100 100 100 100 100 100 100 97 97 97 97 97 97 97 94 81 81 81 71 71 71 55 68 77 87 87 90 94 97 100 100 100 100 100 100
100 100 100 100 100 100 100 100 100 100 100 100 100 100 100 100 97 97 97 97 97 90 90 87 77 77 68 65 32 32 48 48 77 71 71 68 84 87 87 84 100 100 100
97 100 100 100 100 100 100 100 100 100 100 100 100 100 100 97 94 94 90 90 90 90 90 81 65 68 68 55 35 16 23 32 32 45 61 58 52 81 87 94 97 97 97
97 97 97 100 100 100 100 100 100 100 100 100 100 100 100 100 97 90 90 90 87 77 71 58 58 52 35 29 23 13 16 10 39 26 71 87 71 74 84 61 84 97 94
84 87 90 97 97 97 97 100 100 100 100 100 100 100 100 100 100 100 87 74 77 65 58 55 45 39 19 13 26 26 16 10 16 19 48 84 84 87 77 74 81 84 97
42 55 81 97 97 97 97 100 100 100 100 100 100 100 100 100 94 84 81 71 65 61 52 39 32 29 19 6 13 26 16 23 13 10 16 58 61 55 68 42 42 52 71
19 23 58 87 97 97 94 97 97 97 97 97 97 100 100 97 97 81 81 77 68 52 48 48 35 26 13 10 13 16 23 23 29 13 0 10 26 48 58 61 65 45 42
6 10 19 71 90 94 94 94 94 94 97 97 94 94 97 94 90 71 65 65 68 58 45 29 23 13 10 10 16 19 19 23 16 10 3 6 16 39 52 65 61 39 26
Height
5923 5923 5924 5924 5924 5924 5924 5924 5924 5923 5922 5922 5920 5919 5918 5917 5916 5915 5913 5912 5910 5909 5907 5906 5905 5904 5903 5902 5901 5900 5899 5899 5898 5897 5896 5896 5896 5896 5896 5896 5896 5896 5896
5925 5925 5926 5926 5926 5926 5926 5925 5925 5925 5924 5923 5922 5921 5919 5918 5917 5916 5915 5913 5912 5910 5909 5907 5906 5905 5904 5903 5902 5902 5901 5900 5899 5899 5898 5898 5897 5897 5897 5897 5897 5897 5897
5926 5926 5927 5927 5927 5927 5926 5926 5926 5925 5925 5924 5923 5922 5920 5919 5918 5917 5916 5914 5913 5911 5910 5908 5907 5906 5905 5904 5903 5903 5902 5901 5901 5900 5900 5899 5899 5898 5898 5898 5898 5898 5897
5927 5927 5927 5927 5927 5927 5927 5927 5926 5926 5925 5924 5923 5922 5921 5920 5919 5918 5916 5915 5914 5912 5911 5909 5908 5906 5905 5904 5904 5903 5902 5902 5901 5901 5901 5900 5900 5899 5899 5899 5898 5898 5898
5928 5928 5928 5928 5928 5927 5927 5927 5926 5926 5925 5925 5924 5923 5922 5920 5919 5918 5917 5916 5915 5913 5912 5910 5908 5907 5906 5905 5904 5903 5903 5902 5902 5901 5901 5901 5900 5900 5899 5899 5899 5898 5898
5928 5928 5928 5928 5928 5927 5927 5926 5926 5926 5925 5924 5924 5923 5922 5921 5919 5918 5917 5916 5915 5913 5912 5911 5909 5908 5906 5905 5904 5903 5903 5902 5902 5901 5901 5900 5900 5900 5899 5899 5899 5898 5898
5929 5928 5928 5927 5927 5927 5926 5926 5925 5925 5925 5924 5923 5922 5921 5920 5919 5918 5917 5916 5915 5913 5912 5911 5909 5908 5906 5905 5904 5903 5902 5902 5901 5901 5901 5900 5900 5899 5899 5899 5898 5898 5898
5928 5927 5927 5927 5926 5926 5925 5925 5924 5924 5924 5923 5922 5921 5920 5919 5918 5917 5916 5915 5914 5913 5912 5911 5909 5908 5907 5905 5904 5903 5902 5901 5901 5900 5900 5900 5899 5899 5898 5898 5898 5897 5897
5928 5927 5926 5926 5925 5924 5924 5923 5923 5922 5922 5921 5920 5920 5919 5918 5917 5916 5915 5914 5913 5912 5911 5910 5909 5908 5906 5905 5903 5902 5901 5900 5899 5899 5899 5899 5898 5897 5897 5897 5897 5896 5896
5926 5925 5925 5925 5924 5923 5922 5922 5921 5920 5920 5919 5918 5917 5917 5916 5915 5913 5912 5911 5911 5910 5909 5908 5907 5906 5905 5904 5903 5901 5900 5899 5898 5898 5897 5897 5896 5896 5895 5895 5895 5895 5894
5924 5924 5924 5923 5923 5922 5921 5920 5919 5918 5918 5917 5916 5915 5914 5914 5913 5911 5910 5909 5908 5908 5907 5906 5905 5905 5904 5903 5902 5900 5899 5898 5897 5896 5896 5895 5894 5893 5893 5893 5893 5892 5892
5922 5922 5922 5921 5921 5920 5919 5918 5917 5916 5915 5915 5914 5913 5912 5911 5911 5910 5908 5907 5906 5905 5904 5904 5903 5902 5902 5901 5900 5899 5898 5897 5896 5895 5894 5893 5892 5891 5890 5890 5890 5890 5890
5920 5920 5920 5919 5918 5918 5917 5916 5915 5914 5913 5912 5911 5910 5909 5909 5908 5907 5906 5905 5903 5902 5901 5901 5900 5899 5899 5898 5898 5897 5896 5895 5894 5893 5892 5891 5889 5888 5888 5887 5887 5887 5887
5918 5917 5917 5916 5915 5914 5914 5913 5912 5911 5910 5909 5908 5907 5906 5906 5905 5904 5903 5902 5901 5900 5898 5897 5897 5896 5895 5894 5894 5894 5893 5892 5891 5890 5889 5888 5887 5886 5885 5884 5883 5883 5883
5915 5914 5914 5913 5912 5911 5910 5908 5908 5907 5906 5905 5905 5904 5903 5902 5901 5899 5898 5897 5896 5895 5894 5893 5892 5891 5891 5890 5889 5889 5889 5888 5887 5887 5886 5885 5884 5883 5882 5881 5880 5879 5879
5911 5910 5910 5909 5908 5906 5905 5903 5902 5901 5900 5900 5899 5899 5898 5896 5896 5895 5893 5892 5891 5889 5888 5887 5887 5886 5885 5884 5883 5883 5882 5882 5882 5882 5881 5881 5880 5879 5878 5877 5876 5875 5874
5905 5905 5904 5903 5902 5901 5899 5898 5896 5896 5894 5894 5893 5892 5892 5891 5889 5888 5887 5886 5885 5883 5882 5881 5880 5879 5878 5877 5876 5876 5875 5875 5876 5875 5875 5875 5875 5874 5873 5872 5871 5870 5869
5897 5897 5897 5896 5895 5894 5892 5891 5890 5889 5887 5886 5886 5885 5884 5884 5882 5881 5880 5878 5877 5876 5874 5873 5872 5871 5870 5869 5868 5867 5868 5868 5868 5868 5868 5868 5868 5868 5868 5867 5866 5865 5864
5890 5889 5889 5888 5886 5886 5884 5883 5882 5881 5880 5878 5877 5876 5876 5876 5874 5873 5871 5870 5869 5868 5866 5865 5864 5863 5861 5859 5858 5858 5859 5859 5860 5860 5861 5861 5861 5860 5860 5860 5860 5859 5858
5881 5881 5880 5879 5877 5876 5875 5874 5873 5872 5871 5870 5869 5868 5867 5866 5865 5864 5863 5861 5860 5859 5857 5856 5855 5853 5851 5850 5848 5848 5849 5850 5851 5852 5852 5853 5853 5853 5853 5852 5852 5852 5851
5872 5871 5871 5869 5868 5866 5865 5865 5864 5863 5862 5861 5860 5859 5858 5856 5855 5854 5853 5852 5850 5849 5848 5846 5845 5844 5842 5840 5839 5839 5840 5840 5842 5843 5844 5844 5844 5844 5844 5844 5844 5844 5843
5863 5862 5861 5859 5858 5857 5855 5854 5854 5853 5852 5852 5850 5849 5848 5846 5844 5843 5842 5841 5840 5839 5838 5836 5835 5834 5832 5830 5829 5829 5830 5832 5832 5833 5835 5836 5836 5836 5836 5835 5835 5835 5835
5854 5853 5851 5850 5848 5847 5845 5844 5843 5843 5842 5842 5841 5839 5838 5836 5833 5832 5831 5829 5829 5828 5828 5827 5825 5823 5822 5821 5819 5819 5820 5821 5823 5825 5825 5826 5828 5828 5827 5827 5827 5827 5826
5845 5843 5842 5840 5839 5837 5835 5834 5832 5831 5831 5831 5829 5828 5826 5825 5823 5821 5820 5819 5819 5818 5817 5817 5815 5813 5812 5811 5810 5809 5810 5812 5814 5816 5817 5817 5819 5819 5819 5819 5818 5818 5818
5835 5833 5832 5831 5829 5827 5825 5823 5821 5820 5820 5819 5818 5816 5815 5814 5812 5810 5809 5809 5808 5807 5807 5806 5805 5804 5802 5801 5800 5800 5801 5802 5804 5806 5809 5809 5810 5810 5811 5810 5810 5810 5810
5827 5825 5823 5821 5820 5818 5816 5814 5812 5810 5808 5807 5806 5804 5803 5802 5801 5799 5798 5797 5797 5797 5796 5796 5795 5793 5792 5791 5791 5791 5792 5793 5794 5796 5799 5801 5801 5802 5802 5802 5802 5802 5802
Wind_Speed
7 6 5 3 3 3 4 5 6 7 7 8 9 10 11 11 11 12 12 12 12 12 11 11 10 10 10 10 10 10 10 10 10 11 11 10 9 7 5 4 4 4 4
6 4 2 2 3 4 5 6 7 8 8 9 9 10 10 10 11 11 12 12 12 12 12 11 10 9 8 8 8 8 8 8 8 9 9 9 8 7 6 4 3 3 3
3 2 2 2 3 4 5 6 7 8 8 8 9 9 9 10 10 11 11 12 12 12 12 11 10 9 8 8 8 8 8 7 7 7 7 7 7 7 6 5 4 4 4
3 3 1 1 2 4 5 7 8 8 8 9 9 9 9 9 9 10 11 11 12 12 12 12 11 10 9 8 8 8 8 7 6 6 6 6 6 6 5 5 5 4 4
4 3 2 1 1 3 5 6 7 8 9 9 9 9 8 8 8 10 10 10 11 11 11 11 11 11 10 9 8 8 8 7 7 6 5 5 5 6 5 4 5 5 5
5 5 4 3 3 4 4 5 7 8 9 10 9 9 9 8 8 9 10 11 11 10 10 10 10 11 10 9 9 8 8 8 7 7 6 6 6 6 5 5 5 6 6
8 8 7 7 7 6 6 6 7 8 9 10 10 10 10 9 9 10 10 11 11 10 9 9 9 10 10 10 9 9 8 8 8 8 7 7 7 7 6 6 6 6 6
11 11 10 10 10 9 9 8 8 9 9 10 11 11 12 12 12 13 13 12 12 11 9 9 8 9 9 10 10 10 9 9 9 9 9 8 8 8 8 7 7 7 7
13 13 12 12 12 12 11 11 10 10 11 11 12 13 14 15 16 16 16 16 14 12 11 10 9 8 8 9 9 10 10 10 10 10 10 10 11 10 10 10 9 9 9
13 13 13 13 14 14 13 13 12 12 13 13 14 15 16 17 17 18 18 17 16 15 14 12 11 10 9 9 9 10 11 11 11 11 11 12 12 12 12 12 11 11 11
13 13 13 14 15 16 15 15 14 14 15 15 16 16 17 17 18 18 18 17 17 17 16 16 14 13 12 11 10 10 11 12 12 12 11 12 13 13 13 13 13 13 13
13 13 14 15 16 16 16 16 16 16 17 17 17 18 18 19 19 19 19 19 18 18 18 18 18 18 16 14 13 12 13 13 13 13 12 13 13 13 14 14 15 15 15
15 15 15 16 17 18 18 18 19 19 19 20 20 20 20 20 20 20 21 21 21 21 21 21 21 21 21 20 18 17 16 16 15 15 14 14 14 14 14 15 16 16 16
18 19 19 19 20 21 21 22 22 22 23 23 23 23 24 24 24 24 24 24 25 25 25 24 24 24 25 25 24 22 21 20 19 18 17 17 17 16 16 16 16 17 18
22 23 23 23 24 25 25 26 26 26 27 27 27 27 28 28 28 29 29 29 30 29 29 28 28 27 28 28 28 27 25 24 23 22 20 19 19 19 18 18 18 18 18
27 27 27 28 28 29 29 29 30 30 30 31 31 30 31 32 32 33 33 34 34 34 33 33 33 32 31 31 31 31 30 29 27 26 25 23 22 22 21 21 21 20 20
32 32 32 32 33 33 33 34 34 34 34 34 35 35 35 36 37 37 38 37 38 37 37 37 36 36 36 36 36 35 35 33 32 30 29 27 26 24 24 24 23 23 22
37 37 36 37 37 37 38 38 38 38 38 39 39 39 39 39 40 41 41 41 41 41 40 40 40 40 39 39 39 39 38 36 35 34 32 31 29 28 26 26 25 25 24
42 42 42 42 42 42 41 41 40 41 41 42 42 42 42 42 43 44 44 43 44 44 44 43 42 42 42 43 42 41 41 39 38 36 35 34 33 32 30 28 27 26 26
45 45 45 45 45 45 43 42 42 42 42 43 44 45 46 46 45 46 46 46 45 45 44 45 44 44 44 43 42 41 42 41 40 38 37 36 36 35 33 31 29 28 28
44 45 45 45 45 45 43 42 42 42 43 43 44 45 47 48 48 48 48 47 47 46 45 45 44 45 44 43 43 42 41 41 40 39 38 37 38 37 35 34 32 30 30
40 42 42 43 43 44 44 43 42 42 43 43 45 46 48 49 50 51 50 49 48 48 46 45 45 46 44 44 43 41 40 40 40 39 38 38 38 37 37 36 34 32 31
39 40 41 42 43 43 44 44 44 44 45 45 46 48 49 50 52 51 51 49 48 48 47 46 46 46 45 44 43 41 40 39 40 39 39 39 37 36 36 36 34 31 30
40 41 42 43 44 45 46 46 47 47 47 47 48 49 50 51 51 52 51 50 49 48 46 45 45 44 44 43 42 40 40 40 41 39 39 40 37 36 35 34 32 30 28
39 40 40 41 42 44 45 46 47 47 47 48 49 49 51 52 52 52 51 51 50 48 46 44 44 43 43 41 40 39 39 42 43 41 38 38 36 35 34 33 31 28 26
36 37 37 38 39 40 42 43 45 46 47 48 49 50 51 52 52 52 52 51 49 47 46 45 44 43 42 40 38 38 40 42 41 39 36 34 33 33 33 32 30 28 26
Wind_Direction
131 131 127 108 77 48 20 4 358 358 360 3 7 14 19 23 27 28 28 27 24 21 19 19 19 21 23 25 26 26 26 26 26 27 28 30 33 36 37 39 44 52 48
130 127 112 72 38 23 10 357 351 350 350 352 355 360 6 10 15 19 21 22 21 17 14 10 8 6 5 8 10 13 15 18 20 20 20 21 23 26 24 16 9 7 3
144 131 99 47 23 15 13 6 356 351 349 349 349 352 356 1 6 10 12 14 14 13 11 7 3 358 352 349 350 355 359 4 8 12 13 13 14 16 16 10 355 340 334
171 160 138 62 21 13 12 7 359 353 348 346 346 347 349 354 359 4 6 7 7 8 8 6 2 357 349 340 336 338 345 350 353 359 2 1 356 2 4 4 354 335 322
205 205 203 228 327 348 357 359 355 351 346 342 342 342 342 346 351 355 358 360 359 1 2 2 1 358 351 342 333 328 330 337 341 344 344 343 337 346 350 349 345 336 325
236 240 248 262 282 306 325 337 340 340 338 335 333 331 330 332 339 345 348 349 350 353 356 359 1 359 354 346 337 327 321 323 326 329 329 326 320 325 330 327 331 329 323
252 257 264 271 277 285 298 312 321 324 325 323 321 319 316 316 321 328 331 335 337 340 345 350 356 358 357 351 342 332 322 316 314 315 316 314 307 307 307 308 316 320 316
261 263 267 274 278 281 288 296 304 308 311 310 309 308 306 303 306 311 313 315 319 320 327 333 342 348 352 351 345 337 328 319 311 306 308 307 300 299 297 295 294 301 303
270 270 271 275 277 279 282 285 289 294 297 298 298 298 298 297 299 301 304 304 304 303 305 312 318 327 335 341 341 338 333 325 316 307 303 300 297 296 294 291 288 288 291
281 279 280 280 278 278 280 281 281 284 287 289 290 292 293 295 298 299 300 299 296 293 292 295 298 303 312 321 327 330 329 327 324 317 308 299 294 293 291 289 288 286 287
287 287 288 287 285 283 282 281 280 281 282 284 286 289 291 293 298 299 299 299 295 291 287 285 286 287 292 300 308 315 317 319 320 319 314 303 297 292 289 287 287 286 286
292 292 293 293 293 291 288 285 283 283 282 283 285 287 290 293 295 299 300 300 296 292 287 283 279 279 280 284 291 297 301 307 310 313 312 306 302 295 290 287 285 284 283
291 293 294 294 296 295 293 292 289 285 284 285 286 287 289 291 293 296 298 298 297 293 288 284 280 277 276 277 280 285 290 295 299 304 306 304 304 301 296 291 287 283 281
289 291 292 293 294 293 293 293 291 289 287 287 287 288 290 292 293 294 294 293 293 292 290 287 283 279 277 276 276 278 281 286 291 294 297 299 301 301 299 296 291 286 280
287 288 289 290 290 291 291 291 291 291 290 289 289 290 292 293 294 296 295 295 294 292 289 287 285 282 279 276 274 274 277 280 284 288 290 292 295 296 295 295 293 289 283
282 284 285 287 288 289 290 290 290 291 291 291 291 292 292 293 294 295 295 295 295 293 290 288 285 282 279 277 274 272 274 277 279 283 285 286 288 290 291 291 290 288 285
282 283 284 285 287 288 289 289 289 290 290 290 290 291 291 291 292 293 293 294 294 293 290 289 288 285 280 276 275 273 272 274 277 278 281 283 285 285 287 289 288 285 283
284 284 285 286 287 287 288 288 288 288 288 288 288 288 289 289 290 290 291 292 292 292 291 289 289 289 285 280 276 273 270 271 274 274 277 281 283 285 285 285 285 284 282
284 285 286 286 286 286 285 285 285 285 285 286 286 286 286 287 286 287 288 289 289 290 291 289 288 290 289 287 281 276 272 270 271 273 274 277 280 284 285 284 282 280 279
283 283 284 284 283 283 283 282 282 282 282 282 284 284 285 285 286 286 286 287 288 289 289 290 290 291 289 287 284 279 274 271 271 273 274 276 278 281 283 284 282 279 278
281 282 281 281 281 281 281 281 280 280 280 281 282 282 283 283 284 284 285 286 286 287 288 289 291 292 290 287 284 279 274 271 270 271 271 274 277 281 283 283 282 281 278
281 281 281 280 280 280 280 280 279 279 279 280 282 282 282 283 284 284 283 284 286 286 287 288 289 290 290 287 285 279 272 270 269 271 272 273 276 279 282 283 284 282 279
283 281 281 280 280 279 279 279 279 279 279 279 279 280 280 281 283 284 283 282 284 286 286 287 289 288 288 287 282 277 271 267 267 269 272 274 276 277 280 283 284 282 280
283 281 280 279 279 279 279 279 279 279 279 279 278 279 279 280 282 283 283 284 284 286 287 286 287 287 286 284 278 272 267 265 265 266 269 273 275 276 278 280 281 280 279
283 281 280 278 278 277 278 278 279 279 279 279 279 279 279 280 280 280 280 282 283 284 284 284 284 284 283 281 275 268 265 263 263 264 265 268 272 275 277 278 278 277 276
284 283 281 279 279 278 278 279 280 280 281 280 280 280 280 280 280 280 279 280 280 281 281 282 283 281 280 276 270 263 261 260 261 263 264 266 270 273 275 275 275 274 274